Weather History for KAEL - February, 2014

Change the Weather History Date:

Tuesday, February 25, 2014

  Actual Average Record
Temperature  
Mean Temperature 2 °F -  
Max Temperature 8 °F 29 °F 48 °F (1998)
Min Temperature -5 °F 16 °F -5 °F (2003)
Degree Days  
Heating Degree Days 64    
Moisture  
Dew Point -7 °F    
Average Humidity 75    
Maximum Humidity 92    
Minimum Humidity 61    
Precipitation  
Precipitation 0.00 in - - ()
Sea Level Pressure  
Sea Level Pressure 30.29 in    
Wind  
Wind Speed 10 mph (WNW)    
Max Wind Speed 14 mph    
Max Gust Speed 24 mph    
Visibility 9 miles    
Events Snow    
Averages and records for this station are not official NWS values.
T = Trace of Precipitation, MM = Missing Value Source: NWS Daily Summary

Daily Weather History Graph

Daily Weather History Graph

Search for Another Location

Airport or City:

Trip Planner

Search our weather history database for the weather conditions in past years. The results will help you decide how hot, cold, wet, or windy it might be!

Date:

Astronomy

Feb. 25, 2014 Rise Set
Actual Time 6:56 AM CST 5:57 PM CST
Civil Twilight 6:27 AM CST 6:26 PM CST
Nautical Twilight 5:54 AM CST 6:59 PM CST
Astronomical Twilight 5:21 AM CST 7:32 PM CST
Moon 3:57 AM CST (2/25) 1:58 PM CST (2/25)
Length of Visible Light 11h 58m
Length of Day
11h 00m
Waning Crescent, 18% of the Moon is Illuminated
Feb 25
Waning Crescent
Mar 1
New
Mar 8
First Quarter
Mar 16
Full
Mar 23
Last Quarter

Hourly Weather History & Observations

Time (CST) Temp. Windchill Dew Point Humidity Pressure Visibility Wind Dir Wind Speed Gust Speed Precip Events Conditions
12:12 AM 3.2 °F -11.3 °F -0.4 °F 85% 30.29 in 10.0 mi WNW 9.2 mph - N/A   Scattered Clouds
12:31 AM 3.2 °F -9.1 °F -0.4 °F 85% 30.29 in 10.0 mi WNW 6.9 mph - N/A   Scattered Clouds
12:52 AM 3.2 °F -11.3 °F 1.4 °F 92% 30.30 in 7.0 mi NW 9.2 mph 17.3 mph N/A   Overcast
1:12 AM 3.2 °F -13.1 °F -0.4 °F 85% 30.29 in 7.0 mi NW 11.5 mph 17.3 mph N/A   Overcast
1:31 AM 1.4 °F -13.5 °F -0.4 °F 92% 30.29 in 5.0 mi NW 9.2 mph - N/A   Overcast
1:52 AM 1.4 °F -13.5 °F -2.2 °F 85% 30.29 in 10.0 mi NW 9.2 mph 16.1 mph N/A   Mostly Cloudy
2:12 AM 1.4 °F -16.1 °F -5.8 °F 72% 30.30 in 10.0 mi NW 12.7 mph 18.4 mph N/A   Scattered Clouds
2:31 AM 1.4 °F -13.5 °F -5.8 °F 72% 30.30 in 10.0 mi NW 9.2 mph - N/A   Scattered Clouds
2:52 AM -0.4 °F -15.7 °F -5.8 °F 78% 30.30 in 10.0 mi NW 9.2 mph 19.6 mph N/A   Clear
3:11 AM -0.4 °F -14.7 °F -5.8 °F 78% 30.29 in 10.0 mi NW 8.1 mph - N/A   Clear
3:32 AM -0.4 °F -16.7 °F -5.8 °F 78% 30.30 in 10.0 mi NW 10.4 mph - N/A   Clear
3:52 AM -0.4 °F -15.7 °F -5.8 °F 78% 30.29 in 10.0 mi NW 9.2 mph - N/A   Clear
4:11 AM -2.2 °F -18.0 °F -7.6 °F 78% 30.30 in 10.0 mi NW 9.2 mph 17.3 mph N/A   Clear
4:32 AM -2.2 °F -16.8 °F -7.6 °F 78% 30.29 in 10.0 mi NW 8.1 mph - N/A   Clear
4:52 AM -2.2 °F -18.9 °F -7.6 °F 78% 30.29 in 10.0 mi NW 10.4 mph 16.1 mph N/A   Clear
5:12 AM -2.2 °F -18.0 °F -7.6 °F 78% 30.29 in 10.0 mi NW 9.2 mph - N/A   Clear
5:31 AM -2.2 °F -14.2 °F -7.6 °F 78% 30.30 in 10.0 mi NW 5.8 mph - N/A   Clear
5:52 AM -2.2 °F -15.6 °F -7.6 °F 78% 30.30 in 10.0 mi WNW 6.9 mph - N/A   Clear
6:12 AM -4.0 °F -16.3 °F -9.4 °F 78% 30.29 in 10.0 mi NW 5.8 mph - N/A   Clear
6:31 AM -5.8 °F -16.7 °F -9.4 °F 84% 30.29 in 10.0 mi WNW 4.6 mph - N/A   Clear
6:52 AM -5.8 °F -16.7 °F -9.4 °F 84% 30.28 in 10.0 mi NW 4.6 mph - N/A   Clear
7:11 AM -5.8 °F -18.4 °F -9.4 °F 84% 30.29 in 10.0 mi WNW 5.8 mph - N/A   Clear
7:32 AM -5.8 °F -16.7 °F -9.4 °F 84% 30.29 in 10.0 mi West 4.6 mph - N/A   Clear
7:52 AM -5.8 °F -16.7 °F -9.4 °F 84% 30.30 in 10.0 mi West 4.6 mph - N/A   Clear
8:11 AM -4.0 °F -16.3 °F -9.4 °F 78% 30.30 in 10.0 mi West 5.8 mph - N/A   Clear
8:32 AM -2.2 °F -15.6 °F -9.4 °F 71% 30.30 in 10.0 mi West 6.9 mph - N/A   Clear
8:51 AM -2.2 °F -14.2 °F -9.4 °F 71% 30.30 in 10.0 mi WNW 5.8 mph - N/A   Clear
9:12 AM -2.2 °F -16.8 °F -9.4 °F 71% 30.30 in 10.0 mi West 8.1 mph - N/A   Clear
9:31 AM -2.2 °F -18.0 °F -7.6 °F 78% 30.30 in 10.0 mi West 9.2 mph - N/A   Clear
9:52 AM -0.4 °F -15.7 °F -7.6 °F 72% 30.30 in 10.0 mi WNW 9.2 mph 18.4 mph N/A   Clear
10:12 AM -0.4 °F -19.2 °F -7.6 °F 72% 30.31 in 10.0 mi WNW 13.8 mph 19.6 mph N/A   Clear
10:31 AM -0.4 °F -17.6 °F -7.6 °F 72% 30.31 in 7.0 mi WNW 11.5 mph 17.3 mph N/A   Clear
10:52 AM -0.4 °F -17.6 °F -7.6 °F 72% 30.30 in 10.0 mi WNW 11.5 mph 18.4 mph N/A   Clear
11:11 AM -0.4 °F -14.7 °F -7.6 °F 72% 30.30 in 10.0 mi West 8.1 mph 18.4 mph N/A   Clear
11:32 AM 1.4 °F -15.3 °F -9.4 °F 61% 30.30 in 10.0 mi WNW 11.5 mph 17.3 mph N/A   Clear
11:52 AM 1.4 °F -16.9 °F -7.6 °F 66% 30.29 in 10.0 mi WNW 13.8 mph 20.7 mph N/A   Clear
12:12 PM 1.4 °F -15.3 °F -7.6 °F 66% 30.28 in 10.0 mi WNW 11.5 mph 18.4 mph N/A   Clear
12:32 PM 3.2 °F -11.3 °F -7.6 °F 61% 30.28 in 10.0 mi WNW 9.2 mph 19.6 mph N/A   Clear
12:51 PM 3.2 °F -13.9 °F -7.6 °F 61% 30.27 in 10.0 mi WNW 12.7 mph 20.7 mph N/A   Clear
1:12 PM 3.2 °F -12.2 °F -5.8 °F 66% 30.26 in 10.0 mi WNW 10.4 mph 21.9 mph N/A   Clear
1:31 PM 3.2 °F -13.9 °F -5.8 °F 66% 30.26 in 10.0 mi WNW 12.7 mph 19.6 mph N/A   Clear
1:52 PM 5.0 °F -11.6 °F -4.0 °F 66% 30.25 in 10.0 mi WNW 12.7 mph 19.6 mph N/A   Clear
2:12 PM 6.8 °F -8.6 °F -2.2 °F 67% 30.25 in 10.0 mi WNW 11.5 mph 18.4 mph N/A   Clear
2:32 PM 6.8 °F -8.6 °F -2.2 °F 67% 30.24 in 10.0 mi WNW 11.5 mph 20.7 mph N/A   Clear
2:51 PM 6.8 °F -8.6 °F -2.2 °F 67% 30.23 in 10.0 mi WNW 11.5 mph 19.6 mph N/A   Clear
3:12 PM 6.8 °F -9.3 °F -2.2 °F 67% 30.23 in 10.0 mi WNW 12.7 mph 19.6 mph N/A   Clear
3:31 PM 8.6 °F -4.7 °F -0.4 °F 67% 30.23 in 7.0 mi WNW 9.2 mph 17.3 mph N/A   Scattered Clouds
3:52 PM 6.8 °F -7.8 °F -0.4 °F 72% 30.23 in 7.0 mi WNW 10.4 mph 24.2 mph N/A   Mostly Cloudy
4:11 PM 6.8 °F -9.3 °F 1.4 °F 79% 30.23 in 2.0 mi WNW 12.7 mph 19.6 mph N/A Snow Light Snow
4:32 PM 5.0 °F -10.0 °F -2.2 °F 72% 30.23 in 2.5 mi NW 10.4 mph 18.4 mph N/A   Haze
4:52 PM 3.2 °F -11.3 °F -2.2 °F 78% 30.24 in 5.0 mi NW 9.2 mph 23.0 mph N/A   Haze
5:11 PM 3.2 °F -13.1 °F -2.2 °F 78% 30.24 in 10.0 mi NW 11.5 mph 19.6 mph N/A   Scattered Clouds
5:32 PM 1.4 °F -16.1 °F -2.2 °F 85% 30.25 in 4.0 mi NW 12.7 mph 19.6 mph N/A   Haze
5:51 PM 1.4 °F -15.3 °F -4.0 °F 78% 30.26 in 7.0 mi NW 11.5 mph 19.6 mph N/A   Mostly Cloudy
6:12 PM -0.4 °F -19.2 °F -7.6 °F 72% 30.27 in 10.0 mi NW 13.8 mph 21.9 mph N/A   Scattered Clouds
6:32 PM -0.4 °F -18.4 °F -7.6 °F 72% 30.27 in 10.0 mi NW 12.7 mph 19.6 mph N/A   Clear
6:51 PM -2.2 °F -19.9 °F -7.6 °F 78% 30.28 in 10.0 mi NW 11.5 mph 20.7 mph N/A   Clear
7:12 PM -2.2 °F -18.9 °F -9.4 °F 71% 30.29 in 10.0 mi NW 10.4 mph 19.6 mph N/A   Clear
7:31 PM -2.2 °F -18.9 °F -9.4 °F 71% 30.29 in 10.0 mi WNW 10.4 mph 17.3 mph N/A   Clear
7:52 PM -2.2 °F -19.9 °F -9.4 °F 71% 30.30 in 10.0 mi WNW 11.5 mph 19.6 mph N/A   Clear
8:12 PM -2.2 °F -20.7 °F -9.4 °F 71% 30.30 in 10.0 mi NW 12.7 mph 19.6 mph N/A   Clear
8:29 PM -2.2 °F -20.7 °F -9.4 °F 71% 30.31 in 10.0 mi WNW 12.7 mph 18.4 mph N/A   Clear
8:41 PM -2.2 °F -19.9 °F -9.4 °F 71% 30.31 in 10.0 mi WNW 11.5 mph 18.4 mph N/A   Clear
9:01 PM -2.2 °F -21.5 °F -9.4 °F 71% 30.32 in 10.0 mi WNW 13.8 mph 20.7 mph N/A   Clear
9:21 PM -4.0 °F -22.1 °F -9.4 °F 78% 30.33 in 10.0 mi NW 11.5 mph 19.6 mph N/A   Clear
9:39 PM -4.0 °F -22.1 °F -11.2 °F 71% 30.33 in 10.0 mi NW 11.5 mph 21.9 mph N/A   Clear
9:51 PM -5.8 °F -25.2 °F -11.2 °F 77% 30.33 in 10.0 mi WNW 12.7 mph 18.4 mph N/A   Clear
10:11 PM -5.8 °F -23.4 °F -11.2 °F 77% 30.33 in 10.0 mi WNW 10.4 mph 18.4 mph N/A   Clear
10:32 PM -5.8 °F -24.4 °F -11.2 °F 77% 30.32 in 10.0 mi WNW 11.5 mph 17.3 mph N/A   Clear
10:51 PM -5.8 °F -23.4 °F -13.0 °F 71% 30.33 in 10.0 mi WNW 10.4 mph 19.6 mph N/A   Clear
11:12 PM -5.8 °F -24.4 °F -13.0 °F 71% 30.32 in 10.0 mi WNW 11.5 mph 19.6 mph N/A   Clear
11:32 PM -5.8 °F -25.2 °F -13.0 °F 71% 30.32 in 10.0 mi WNW 12.7 mph 19.6 mph N/A   Clear
11:52 PM -5.8 °F -23.4 °F -13.0 °F 71% 30.32 in 10.0 mi WNW 10.4 mph 19.6 mph N/A   Clear